Location: Dos Palmas
(32.4468°N, 116.8732°W)
Time: 03:40:54
(UTC+00:00)

Cosmos 1125 Rocket - Pass Details

Date: 20 June 2021
Orbit: 757 x 780 km, 74.0° (Epoch: 29 July)

Event Time Altitude Azimuth Distance (km) Brightness Sun altitude
Rises 11:11:25 0° 334° (NNW) 3,243 7.0 -16.2°
Reaches altitude 10° 11:13:54 10° 327° (NNW) 2,317 6.1 -15.8°
Maximum altitude 11:18:47 40° 259° (W) 1,130 4.0 -15.0°
Enters shadow 11:22:37 16° 196° (SSW) 1,950 5.1 -14.4°
